Location: Fort Worth, Tx
(32.7431°N, 97.3695°W)
Time: 11:31:56
(UTC-04:00)

Courier 1B - Pass Details

Date: 28 February 2024
Orbit: 962 x 1208 km, 28.3° (Epoch: 24 April)

Event Time Altitude Azimuth Distance (km) Brightness Sun altitude
Rises 21:04:53 0° 199° (SSW) 3,876 10.8 -21.6°
Reaches altitude 10° 21:09:59 10° 169° (S) 2,855 9.8 -22.7°
Enters shadow 21:11:11 11° 159° (SSE) 2,747 9.6 -22.9°
